Flag for Germany Weather past 2 weeks in Erkelenz, North Rhine-Westphalia, Germany

Now
63 °F

Passing clouds.


Feels Like: 63 °F
Forecast: 52 / 66 °F
Wind: 3 mph from North

Location: Monchengladbach Airport

Current Time: Aug 21, 2014 at 8:02:46 PM

Latest Report: Aug 21, 2014 at 7:20 PM


Visibility: N/A

Pressure: 29.95 "Hg

Humidity: 64%

Dew point: 50 °F

Location of ErkelenzLocation

Historic Weather in Erkelenz — Graph

°F

Erkelenz temperature yesterday

Maximum temperature yesterday: 66 °F (at 3:50 PM)
Minimum temperature yesterday: 50 °F (at 7:50 AM)
Average temperature yesterday: 60 °F

Past Weeks' High & Low Weather Summary

 TemperatureHumidityPressure
High77 °F (Aug 8, 12:50 PM)100% (Aug 8, 4:02 PM)30.09 "Hg (Aug 8, 4:02 PM)
Low48 °F (Aug 21, 7:50 AM)46% (Aug 11, 2:50 PM)29.56 "Hg (Aug 10, 6:20 PM)
Average64 °F73%29.86 "Hg
* Reported Aug 6 6:20 PM — Aug 21 6:50 PM, Erkelenz, Weather by CustomWeather, © 2014

Note: Actual official high and low records may vary slightly from our data, if they occured in-between our weather recording intervals... More about our weather records

Advertising

Erkelenz weather history for previous 24 hours

 ConditionsComfort  
Time TempWeatherWind HumidityBarometerVisibility
6:50 PM
Aug 21
63 °FPassing clouds.3 mph59%29.98 "HgN/A
6:20 PM64 °FPassing clouds.8 mph56%29.98 "HgN/A
5:50 PM63 °FPassing clouds.6 mph56%29.98 "HgN/A
5:20 PM63 °FPassing clouds.7 mph59%29.98 "HgN/A
4:50 PM64 °FClear.9 mph49%29.98 "Hg10 mi
4:20 PM66 °FPassing clouds.6 mph49%29.98 "HgN/A
3:50 PM63 °FPassing clouds.7 mph56%30.01 "HgN/A
3:20 PM63 °FPassing clouds.6 mph56%30.01 "HgN/A
2:50 PM63 °FPassing clouds.7 mph56%30.01 "HgN/A
2:20 PM63 °FPassing clouds.5 mph56%30.01 "HgN/A
1:50 PM63 °FPassing clouds.6 mph59%30.01 "HgN/A
1:20 PM63 °FPassing clouds.9 mph56%30.01 "HgN/A
12:50 PM63 °FScattered clouds.8 mph59%30.04 "HgN/A
12:20 PM63 °FScattered clouds.7 mph64%30.04 "HgN/A
11:50 AM63 °FScattered clouds.7 mph64%30.04 "HgN/A
9:50 AM57 °FSunny.3 mph77%30.04 "Hg10 mi
9:20 AM55 °FPassing clouds.5 mph82%30.04 "HgN/A
8:50 AM54 °FSunny.3 mph88%30.04 "Hg10 mi
8:20 AM50 °FSunny.3 mph94%30.04 "Hg10 mi
7:50 AM48 °FSunny.3 mph100%30.04 "Hg10 mi
8:20 PM
Aug 20
54 °FClear.1 mph94%30.01 "Hg10 mi
Weather by CustomWeather, © 2014

See weather overviewHow to use our weather pages